Weather in Bongao

Philippines     5°08′25″N   119°53′33″E
temp.,
°C
wind,
m/s
gust,
m/s
humid.,
%
clouds,
%
prec.,
mm/h
press.,
hPa
HPBL,
m
18 april, sun
sun1823:00+28nw5881100 0.2 1011696
02:00+28nw587984 0.4 1009723
05:00+28nw697976 0.1 1009912
08:00+29nw71077100 0.3 10101068
11:00+29w677341 0.3 1011873
14:00+29wsw466996 0.4 10081042
17:00+28wsw3375100 0.3 1008685
20:00+27w127967 0.3 1010296
19 april, mon
mon1923:00+27w137897 0.1 1010346
02:00+25sw2486100 1.7 1009170
05:00+25s2283100 0.8 1008174
08:00+27sse2380100 0.8 1010255
11:00+30sw456699 0.1 10101027
14:00+29sw5670100 1.5 1007883
17:00+27wsw3584100 2.2 1008322
20:00+27ssw1282100 3.1 1010191
20 april, tue
tue2023:00+26s118446 0.0 1010110
02:00+26sw0183100 0.0 1008160
05:00+26se0084100 0.0 1008113
08:00+27sse1182100 0.0 1010175
11:00+30w2365100 0.0 1010832
14:00+30wnw3365100 0.0 1008891
17:00+28nw2271100 0.0 1008384
20:00+27ne2376100 0.1 1010323
21 april, wed
wed2123:00+27nne2379100 0.0 1011385
02:00+27nnw127899 0.0 1009377
05:00+26nnw1279100 0.0 1009367
08:00+28e0074100 0.0 1011402
11:00+30ssw1262100 0.1 1011888
14:00+31sw2260100 0.3 10081005
17:00+29se2267100 0.1 1008585
20:00+27se1278100 0.1 1010126
22 april, thu
thu2223:00+26se1180100 0.0 101094
02:00+26s0081100 0.0 100899
05:00+26nnw0083100 0.1 1008101
08:00+27sw118122 1.1 1010140
11:00+30wsw2264100 0.8 1010859
14:00+30wsw2364100 1.1 1007899
17:00+29sw2268100 0.1 1007576
20:00+27sse127998 0.1 1009123